Toluca Jose Maria, Mexico

11:27 PM CDT on August 17, 2017 (GMT -0500)
Lic Adolfo Lopez Mateos International

Weather History for MMTO - November, 2012

Change the Weather History Date:

Friday, November 9, 2012

  Actual Average Record
Temperature  
Mean Temperature 53 °F -  
Max Temperature 69 °F 68 °F 77 °F (2004)
Min Temperature 37 °F 37 °F 26 °F (1996)
Degree Days  
Heating Degree Days 12    
Growing Degree Days 3 (Base 50)    
Moisture  
Dew Point 38 °F    
Average Humidity 66    
Maximum Humidity 93    
Minimum Humidity 21    
Precipitation  
Precipitation 0.00 in - - ()
Sea Level Pressure  
Sea Level Pressure 30.24 in    
Wind  
Wind Speed 3 mph ()    
Max Wind Speed 14 mph    
Max Gust Speed -    
Visibility 4.1 miles    
Events Fog    
Averages and records for this station are not official NWS values.
T = Trace of Precipitation, MM = Missing Value Source: Averaged Metar Reports

Daily Weather History Graph

Daily Weather History Graph

Search for Another Location

Airport or City:

Trip Planner

Search our weather history database for the weather conditions in past years. The results will help you decide how hot, cold, wet, or windy it might be!

Date:

Astronomy

Nov. 09, 2012 Rise Set
Actual Time 6:43 AM CST 6:00 PM CST
Civil Twilight 6:20 AM CST 6:23 PM CST
Nautical Twilight 5:53 AM CST 6:50 PM CST
Astronomical Twilight 5:27 AM CST 7:16 PM CST
Moon 2:20 AM CST (11/9) 2:43 PM CST (11/9)
Length of Visible Light 12h 03m
Length of Day
11h 17m
Waning Crescent, 23% of the Moon is Illuminated
Nov 9
Waning Crescent
Nov 13
New
Nov 20
First Quarter
Nov 28
Full
Dec 6
Last Quarter

Hourly Weather History & Observations

Time (CST) Temp. Windchill Dew Point Humidity Pressure Visibility Wind Dir Wind Speed Gust Speed Precip Events Conditions
12:45 AM 42.8 °F 40.1 °F 37.4 °F 81% 30.41 in 4.0 mi WNW 4.6 mph - N/A   Scattered Clouds
1:45 AM 41.0 °F - 37.4 °F 87% 30.39 in 3.0 mi Calm Calm - N/A   Scattered Clouds
2:45 AM 41.0 °F - 35.6 °F 81% 29.90 in 2.0 mi North - - N/A   Scattered Clouds
3:45 AM 41.0 °F - 37.4 °F 87% 30.37 in 2.0 mi Calm Calm - N/A   Scattered Clouds
4:45 AM 37.4 °F 34.9 °F 33.8 °F 87% 30.37 in 2.0 mi NE 3.5 mph - N/A   Scattered Clouds
5:45 AM 37.4 °F - 33.8 °F 87% 29.99 in 2.0 mi Calm Calm - N/A   Scattered Clouds
6:45 AM 37.4 °F - 33.8 °F 87% 30.39 in 2.0 mi Calm Calm - N/A   Mostly Cloudy
7:26 AM 39.2 °F - 37.4 °F 93% 30.40 in 0.1 mi Calm Calm - N/A Fog Fog
7:45 AM 41.0 °F - 37.4 °F 87% 30.41 in 0.1 mi Calm Calm - N/A Fog Fog
8:45 AM 42.8 °F - 41.0 °F 93% 30.42 in 0.2 mi Calm Calm - N/A Fog Fog
9:45 AM 51.8 °F - 42.8 °F 71% 30.42 in 1.0 mi Calm Calm - N/A Fog Fog
10:30 AM 57.2 °F - 41.0 °F 55% 30.42 in 2.0 mi WNW 4.6 mph - N/A   Clear
10:45 AM 59.0 °F - 37.4 °F 45% 30.41 in 3.0 mi WSW 4.6 mph - N/A   Haze
11:45 AM 62.6 °F - 35.6 °F 37% 29.92 in 5.0 mi NW 4.6 mph - N/A   Scattered Clouds
12:45 PM 66.2 °F - 33.8 °F 30% 30.33 in 6.0 mi ENE 4.6 mph - N/A   Scattered Clouds
1:45 PM 68.0 °F - 32.0 °F 26% - 6.0 mi WSW 3.5 mph - N/A   Mostly Cloudy
2:45 PM 68.0 °F - 30.2 °F 24% 29.74 in 8.0 mi NNW 4.6 mph - N/A   Mostly Cloudy
3:45 PM 69.8 °F - 28.4 °F 21% 30.24 in 8.0 mi East 10.4 mph - N/A   Scattered Clouds
4:45 PM 68.0 °F - 42.8 °F 40% 30.25 in 7.0 mi SE 11.5 mph - N/A   Partly Cloudy
5:45 PM 60.8 °F - 44.6 °F 55% 29.86 in 7.0 mi SSE 13.8 mph - N/A   Clear
6:45 PM 55.4 °F - 42.8 °F 63% 30.31 in 6.0 mi South 11.5 mph - N/A   Clear
7:45 PM 50.0 °F - 42.8 °F 76% 30.34 in 6.0 mi East 3.5 mph - N/A   Clear
8:45 PM 50.0 °F - 42.8 °F 76% 29.99 in 6.0 mi ESE 6.9 mph - N/A   Partly Cloudy
9:45 PM 48.2 °F - 41.0 °F 76% 30.38 in 6.0 mi Calm Calm - N/A   Partly Cloudy
10:45 PM 44.6 °F - 39.2 °F 81% 30.40 in 6.0 mi Calm Calm - N/A   Partly Cloudy
11:45 PM 42.8 °F 41.1 °F 37.4 °F 81% 29.96 in 6.0 mi NE 3.5 mph - N/A   Partly Cloudy